Location: Staunton
(38.1490°N, 79.0720°W)
Time: 00:50:25
(UTC-05:00)

ISS - Pass Details

Date: 21 January 2021
Orbit: 418 x 421 km, 51.6° (Epoch: 23 January)

Event Time Altitude Azimuth Distance (km) Brightness Sun altitude
Rises 18:02:32 0° 239° (WSW) 2,355 2.1 -7.3°
Reaches altitude 10° 18:04:39 10° 244° (WSW) 1,495 0.8 -7.7°
Maximum altitude 18:07:57 55° 324° (NW) 511 -3.2 -8.3°
Drops below altitude 10° 18:11:17 10° 43° (NE) 1,504 -1.5 -8.9°
Enters shadow 18:11:22 - 43° (NE) 1,541 -1.4 -8.9°
